Flag for Nepal Weather past 2 weeks in Pokhara, Nepal

Now
88 °F

Scattered clouds.


Feels Like: 86 °F
Forecast: 68 / 90 °F
Wind: 14 mph from Northwest

Location: Kathmandu Airport

Current Time: May 24, 2015 at 3:27:59 PM

Latest Report: May 24, 2015 at 2:35 PM


Visibility: 5 mi

Pressure: 29.80 "Hg

Humidity: 31%

Dew point: 54 °F

Location of PokharaLocation

Historic Weather in Pokhara — Graph

°F

Pokhara temperature yesterday

Maximum temperature yesterday: 90 °F (at 2:35 PM)
Minimum temperature yesterday: 61 °F (at 11:35 PM)
Average temperature yesterday: 72 °F

Past Weeks' High & Low Weather Summary

 TemperatureHumidityPressure
High90 °F (May 23, 2:35 PM)100% (May 10, 2:35 AM)30.09 "Hg (May 10, 2:35 AM)
Low57 °F (May 24, 5:35 AM)22% (May 23, 2:35 PM)29.74 "Hg (May 22, 2:35 PM)
Average73 °F69%29.91 "Hg
* Reported May 9 1:35 PM — May 24 1:35 PM, Pokhara, Weather by CustomWeather, © 2015

Note: Actual official high and low records may vary slightly from our data, if they occured in-between our weather recording intervals... More about our weather records

Advertising

Pokhara weather history for previous 24 hours

 ConditionsComfort  
Time TempWeatherWind HumidityBarometerVisibility
1:35 PM
Sun, May 24
88 °FPassing clouds.12 mph24%29.80 "HgN/A
12:35 PM86 °FPassing clouds.5 mph35%N/AN/A
11:35 AM82 °FPassing clouds.3 mph42%29.83 "HgN/A
10:35 AM77 °FPassing clouds.2 mph47%29.86 "Hg5 mi
9:35 AM72 °FPassing clouds.5 mph61%29.89 "Hg4 mi
8:35 AM68 °FPassing clouds.2 mph64%29.89 "Hg4 mi
7:35 AM64 °FPassing clouds.No wind78%29.86 "Hg4 mi
6:35 AM61 °FPassing clouds.3 mph83%29.86 "HgN/A
5:35 AM57 °FPassing clouds.No wind94%29.83 "HgN/A
4:35 AM59 °FPassing clouds.No wind88%29.83 "Hg4 mi
3:35 AM59 °FPassing clouds.No wind88%29.80 "Hg4 mi
2:35 AM59 °FPassing clouds.3 mph88%29.80 "Hg4 mi
1:35 AM59 °FPassing clouds.3 mph88%29.80 "Hg4 mi
12:35 AM61 °FPassing clouds.5 mph83%29.83 "Hg4 mi
11:35 PM
Sat, May 23
61 °FPassing clouds.2 mph83%29.86 "Hg5 mi
10:35 PM63 °FPassing clouds.5 mph77%29.86 "Hg5 mi
9:35 PM64 °FPassing clouds.5 mph68%29.89 "Hg4 mi
8:35 PM64 °FLight rain. Partly cloudy.6 mph68%29.89 "Hg4 mi
7:35 PM64 °FThunderstorms. Partly cloudy.12 mph68%29.89 "Hg4 mi
6:35 PM63 °FThunderstorms. Broken clouds.15 mph77%29.86 "Hg3 mi
5:35 PM72 °FThunderstorms. Broken clouds.21 mph47%29.83 "Hg3 mi
4:35 PM86 °FBroken clouds.7 mph31%29.74 "Hg5 mi
3:35 PM90 °FScattered clouds.12 mph24%29.74 "HgN/A
Weather by CustomWeather, © 2015

See weather overviewHow to use our weather pages